Time,TemperatureF,DewpointF,PressureIn,WindDirection,WindDirectionDegrees,WindSpeedMPH,WindSpeedGustMPH,Humidity,HourlyPrecipIn,Conditions,Clouds,dailyrainin,SoftwareType,DateUTC
2013-02-10 00:01:00,-999.0,-99.9,30.34,North,351,14.0,25.0,-999,-99.99,,,-99.99,,2013-02-10 05:01:00,
2013-02-10 00:11:00,-999.0,-99.9,30.34,NNW,343,15.0,25.0,-999,-99.99,,,-99.99,,2013-02-10 05:11:00,
2013-02-10 00:23:00,-999.0,-99.9,30.35,NNW,347,13.0,28.0,-999,-99.99,,,-99.99,,2013-02-10 05:23:00,
2013-02-10 00:32:00,30.0,-99.9,30.35,North,354,14.0,28.0,-999,-99.99,,,-99.99,,2013-02-10 05:32:00,
2013-02-10 00:42:00,-999.0,-99.9,30.35,North,358,15.0,24.0,-999,-99.99,,,-99.99,,2013-02-10 05:42:00,
2013-02-10 00:52:00,-999.0,-99.9,30.35,North,359,13.0,19.0,-999,-99.99,,,-99.99,,2013-02-10 05:52:00,
2013-02-10 01:02:00,29.0,-99.9,30.36,North,357,13.0,24.0,-999,-99.99,,,-99.99,,2013-02-10 06:02:00,
2013-02-10 01:11:00,-999.0,-99.9,30.35,North,356,15.0,26.0,-999,-99.99,,,-99.99,,2013-02-10 06:11:00,
2013-02-10 01:22:00,29.0,-99.9,30.35,North,358,15.0,24.0,-999,-99.99,,,-99.99,,2013-02-10 06:22:00,
2013-02-10 01:32:00,-999.0,-99.9,30.36,North,2,12.0,20.0,-999,-99.99,,,-99.99,,2013-02-10 06:32:00,
2013-02-10 01:42:00,-999.0,-99.9,30.36,North,2,14.0,23.0,-999,-99.99,,,-99.99,,2013-02-10 06:42:00,
2013-02-10 01:52:00,-999.0,-99.9,30.37,North,3,10.0,21.0,-999,-99.99,,,-99.99,,2013-02-10 06:52:00,
2013-02-10 02:01:00,28.0,-99.9,30.37,North,4,11.0,23.0,-999,-99.99,,,-99.99,,2013-02-10 07:01:00,
2013-02-10 02:11:00,-999.0,-99.9,30.37,NNE,15,8.0,18.0,-999,-99.99,,,-99.99,,2013-02-10 07:11:00,
2013-02-10 02:21:00,-999.0,-99.9,30.38,North,7,9.0,17.0,-999,-99.99,,,-99.99,,2013-02-10 07:21:00,
2013-02-10 02:32:00,28.0,-99.9,30.38,North,10,9.0,20.0,-999,-99.99,,,-99.99,,2013-02-10 07:32:00,
2013-02-10 02:42:00,-999.0,-99.9,30.39,North,7,8.0,16.0,-999,-99.99,,,-99.99,,2013-02-10 07:42:00,
2013-02-10 02:52:00,27.0,-99.9,30.39,North,1,13.0,19.0,-999,-99.99,,,-99.99,,2013-02-10 07:52:00,
2013-02-10 03:01:00,-999.0,-99.9,30.39,North,2,11.0,17.0,-999,-99.99,,,-99.99,,2013-02-10 08:01:00,
2013-02-10 03:11:00,-999.0,-99.9,30.39,North,11,8.0,14.0,-999,-99.99,,,-99.99,,2013-02-10 08:11:00,
2013-02-10 03:21:00,-999.0,-99.9,30.39,North,3,9.0,15.0,-999,-99.99,,,-99.99,,2013-02-10 08:21:00,
2013-02-10 03:32:00,-999.0,-99.9,30.39,North,7,8.0,18.0,-999,-99.99,,,-99.99,,2013-02-10 08:32:00,
2013-02-10 03:43:00,-999.0,-99.9,30.39,North,2,8.0,17.0,-999,-99.99,,,-99.99,,2013-02-10 08:43:00,
2013-02-10 03:52:00,-999.0,-99.9,30.38,North,358,8.0,15.0,-999,-99.99,,,-99.99,,2013-02-10 08:52:00,
2013-02-10 04:02:00,26.0,-99.9,30.39,North,4,11.0,17.0,-999,-99.99,,,-99.99,,2013-02-10 09:02:00,
2013-02-10 04:11:00,-999.0,-99.9,30.39,North,2,8.0,16.0,-999,-99.99,,,-99.99,,2013-02-10 09:11:00,
2013-02-10 04:21:00,26.0,-99.9,30.39,NNE,18,6.0,14.0,-999,-99.99,,,-99.99,,2013-02-10 09:21:00,
2013-02-10 04:32:00,-999.0,-99.9,30.39,North,5,5.0,14.0,-999,-99.99,,,-99.99,,2013-02-10 09:32:00,
2013-02-10 04:42:00,-999.0,-99.9,30.40,NNE,22,5.0,11.0,-999,-99.99,,,-99.99,,2013-02-10 09:42:00,
2013-02-10 04:52:00,-999.0,-99.9,30.40,NNE,26,4.0,11.0,-999,-99.99,,,-99.99,,2013-02-10 09:52:00,
2013-02-10 05:01:00,-999.0,-99.9,30.40,NNE,20,3.0,11.0,-999,-99.99,,,-99.99,,2013-02-10 10:01:00,
2013-02-10 05:11:00,-999.0,-99.9,30.41,NNE,32,3.0,5.0,-999,-99.99,,,-99.99,,2013-02-10 10:11:00,
2013-02-10 05:21:00,-999.0,-99.9,30.41,NE,44,3.0,7.0,-999,-99.99,,,-99.99,,2013-02-10 10:21:00,
2013-02-10 05:32:00,24.0,-99.9,30.41,NE,34,3.0,5.0,-999,-99.99,,,-99.99,,2013-02-10 10:32:00,
2013-02-10 05:42:00,-999.0,-99.9,30.41,NNE,23,3.0,7.0,-999,-99.99,,,-99.99,,2013-02-10 10:42:00,
2013-02-10 05:52:00,-999.0,-99.9,30.41,North,5,4.0,7.0,-999,-99.99,,,-99.99,,2013-02-10 10:52:00,
2013-02-10 06:01:00,24.0,-99.9,30.41,North,359,7.0,13.0,-999,-99.99,,,-99.99,,2013-02-10 11:01:00,
2013-02-10 06:11:00,-999.0,-99.9,30.42,North,3,4.0,9.0,-999,-99.99,,,-99.99,,2013-02-10 11:11:00,
2013-02-10 06:22:00,25.0,-99.9,30.42,NNE,13,3.0,10.0,-999,-99.99,,,-99.99,,2013-02-10 11:22:00,
2013-02-10 06:32:00,-999.0,-99.9,30.43,North,8,4.0,9.0,-999,-99.99,,,-99.99,,2013-02-10 11:32:00,
2013-02-10 06:42:00,-999.0,-99.9,30.42,NNE,27,5.0,10.0,-999,-99.99,,,-99.99,,2013-02-10 11:42:00,
2013-02-10 06:52:00,24.0,-99.9,30.42,NE,38,4.0,7.0,-999,-99.99,,,-99.99,,2013-02-10 11:52:00,
2013-02-10 07:02:00,-999.0,-99.9,30.43,NE,46,2.0,5.0,-999,-99.99,,,-99.99,,2013-02-10 12:02:00,
2013-02-10 07:12:00,-999.0,-99.9,30.44,NNE,21,2.0,5.0,-999,-99.99,,,-99.99,,2013-02-10 12:12:00,
2013-02-10 07:22:00,-999.0,-99.9,30.44,NE,40,3.0,4.0,-999,-99.99,,,-99.99,,2013-02-10 12:22:00,
2013-02-10 07:32:00,24.0,-99.9,30.45,NE,34,3.0,6.0,-999,-99.99,,,-99.99,,2013-02-10 12:32:00,
2013-02-10 07:42:00,-999.0,-99.9,30.45,NNE,19,2.0,4.0,-999,-99.99,,,-99.99,,2013-02-10 12:42:00,
2013-02-10 07:52:00,26.0,-99.9,30.45,NNE,24,2.0,4.0,-999,-99.99,,,-99.99,,2013-02-10 12:52:00,
2013-02-10 08:02:00,-999.0,-99.9,30.45,NNE,25,5.0,10.0,-999,-99.99,,,-99.99,,2013-02-10 13:02:00,
2013-02-10 08:12:00,-999.0,-99.9,30.46,NNE,20,7.0,10.0,-999,-99.99,,,-99.99,,2013-02-10 13:12:00,
2013-02-10 08:21:00,-999.0,-99.9,30.47,NNE,14,4.0,6.0,-999,-99.99,,,-99.99,,2013-02-10 13:21:00,
2013-02-10 08:32:00,-999.0,-99.9,30.47,NNE,15,6.0,9.0,-999,-99.99,,,-99.99,,2013-02-10 13:32:00,
2013-02-10 08:42:00,-999.0,-99.9,30.48,NNE,22,6.0,9.0,-999,-99.99,,,-99.99,,2013-02-10 13:42:00,
2013-02-10 08:52:00,-999.0,-99.9,30.48,North,10,6.0,10.0,-999,-99.99,,,-99.99,,2013-02-10 13:52:00,
2013-02-10 09:02:00,27.0,-99.9,30.48,NNE,18,6.0,9.0,-999,-99.99,,,-99.99,,2013-02-10 14:02:00,
2013-02-10 09:11:00,-999.0,-99.9,30.48,NNE,12,5.0,8.0,-999,-99.99,,,-99.99,,2013-02-10 14:11:00,
2013-02-10 09:22:00,-999.0,-99.9,30.48,North,358,7.0,11.0,-999,-99.99,,,-99.99,,2013-02-10 14:22:00,
2013-02-10 09:32:00,27.0,-99.9,30.48,NNE,21,8.0,11.0,-999,-99.99,,,-99.99,,2013-02-10 14:32:00,
2013-02-10 09:42:00,-999.0,-99.9,30.48,NE,44,6.0,9.0,-999,-99.99,,,-99.99,,2013-02-10 14:42:00,
2013-02-10 09:52:00,28.0,-99.9,30.48,North,11,7.0,9.0,-999,-99.99,,,-99.99,,2013-02-10 14:52:00,
2013-02-10 10:02:00,-999.0,-99.9,30.48,NNE,17,4.0,6.0,-999,-99.99,,,-99.99,,2013-02-10 15:02:00,
2013-02-10 10:12:00,-999.0,-99.9,30.49,North,350,7.0,10.0,-999,-99.99,,,-99.99,,2013-02-10 15:12:00,
2013-02-10 10:22:00,-999.0,-99.9,30.49,North,349,5.0,8.0,-999,-99.99,,,-99.99,,2013-02-10 15:22:00,
2013-02-10 10:32:00,28.0,-99.9,30.49,NNW,345,7.0,10.0,-999,-99.99,,,-99.99,,2013-02-10 15:32:00,
2013-02-10 10:42:00,-999.0,-99.9,30.49,NNW,347,5.0,9.0,-999,-99.99,,,-99.99,,2013-02-10 15:42:00,
2013-02-10 10:52:00,-999.0,-99.9,30.49,NNW,336,6.0,8.0,-999,-99.99,,,-99.99,,2013-02-10 15:52:00,
2013-02-10 11:02:00,29.0,-99.9,30.49,NNW,344,5.0,7.0,-999,-99.99,,,-99.99,,2013-02-10 16:02:00,
2013-02-10 11:12:00,-999.0,-99.9,30.49,NNW,341,2.0,6.0,-999,-99.99,,,-99.99,,2013-02-10 16:12:00,
2013-02-10 11:22:00,-999.0,-99.9,30.49,NW,326,2.0,5.0,-999,-99.99,,,-99.99,,2013-02-10 16:22:00,
2013-02-10 11:32:00,-999.0,-99.9,30.48,NNW,328,4.0,5.0,-999,-99.99,,,-99.99,,2013-02-10 16:32:00,
2013-02-10 11:42:00,-999.0,-99.9,30.47,NNW,337,4.0,6.0,-999,-99.99,,,-99.99,,2013-02-10 16:42:00,
2013-02-10 11:52:00,-999.0,-99.9,30.46,NW,314,5.0,6.0,-999,-99.99,,,-99.99,,2013-02-10 16:52:00,
2013-02-10 12:02:00,-999.0,-99.9,30.46,NW,320,5.0,6.0,-999,-99.99,,,-99.99,,2013-02-10 17:02:00,
2013-02-10 12:12:00,-999.0,-99.9,30.46,West,281,6.0,8.0,-999,-99.99,,,-99.99,,2013-02-10 17:12:00,
2013-02-10 12:22:00,-999.0,-99.9,30.46,West,270,6.0,7.0,-999,-99.99,,,-99.99,,2013-02-10 17:22:00,
2013-02-10 12:32:00,30.0,-99.9,30.45,West,260,7.0,9.0,-999,-99.99,,,-99.99,,2013-02-10 17:32:00,
2013-02-10 12:42:00,-999.0,-99.9,30.45,WSW,249,11.0,12.0,-999,-99.99,,,-99.99,,2013-02-10 17:42:00,
2013-02-10 12:53:00,-999.0,-99.9,30.43,WSW,238,10.0,13.0,-999,-99.99,,,-99.99,,2013-02-10 17:53:00,
2013-02-10 13:02:00,31.0,-99.9,30.43,SSW,210,9.0,11.0,-999,-99.99,,,-99.99,,2013-02-10 18:02:00,
2013-02-10 13:12:00,-999.0,-99.9,30.43,SW,215,6.0,9.0,-999,-99.99,,,-99.99,,2013-02-10 18:12:00,
2013-02-10 13:22:00,-999.0,-99.9,30.43,SW,236,10.0,12.0,-999,-99.99,,,-99.99,,2013-02-10 18:22:00,
2013-02-10 13:32:00,-999.0,-99.9,30.43,South,189,6.0,10.0,-999,-99.99,,,-99.99,,2013-02-10 18:32:00,
2013-02-10 13:42:00,-999.0,-99.9,30.42,SSW,194,6.0,8.0,-999,-99.99,,,-99.99,,2013-02-10 18:42:00,
2013-02-10 13:52:00,-999.0,-99.9,30.42,SW,214,5.0,6.0,-999,-99.99,,,-99.99,,2013-02-10 18:52:00,
2013-02-10 14:02:00,31.0,-99.9,30.42,South,183,7.0,8.0,-999,-99.99,,,-99.99,,2013-02-10 19:02:00,
2013-02-10 14:12:00,-999.0,-99.9,30.42,SW,220,6.0,7.0,-999,-99.99,,,-99.99,,2013-02-10 19:12:00,
2013-02-10 14:22:00,-999.0,-99.9,30.42,SSW,200,6.0,7.0,-999,-99.99,,,-99.99,,2013-02-10 19:22:00,
2013-02-10 14:32:00,31.0,-99.9,30.42,South,175,6.0,7.0,-999,-99.99,,,-99.99,,2013-02-10 19:32:00,
2013-02-10 14:43:00,-999.0,-99.9,30.42,SSW,209,6.0,8.0,-999,-99.99,,,-99.99,,2013-02-10 19:43:00,
2013-02-10 14:52:00,31.0,-99.9,30.42,SW,218,5.0,6.0,-999,-99.99,,,-99.99,,2013-02-10 19:52:00,
2013-02-10 15:02:00,-999.0,-99.9,30.41,South,184,5.0,7.0,-999,-99.99,,,-99.99,,2013-02-10 20:02:00,
2013-02-10 15:11:00,-999.0,-99.9,30.41,SE,135,7.0,9.0,-999,-99.99,,,-99.99,,2013-02-10 20:11:00,
2013-02-10 15:22:00,-999.0,-99.9,30.40,SSE,151,7.0,9.0,-999,-99.99,,,-99.99,,2013-02-10 20:22:00,
2013-02-10 15:32:00,32.0,-99.9,30.40,SSE,157,7.0,9.0,-999,-99.99,,,-99.99,,2013-02-10 20:32:00,
2013-02-10 15:42:00,32.0,-99.9,30.40,SSE,165,5.0,7.0,-999,-99.99,,,-99.99,,2013-02-10 20:42:00,
2013-02-10 15:53:00,33.0,-99.9,30.39,SSE,164,6.0,8.0,-999,-99.99,,,-99.99,,2013-02-10 20:53:00,
2013-02-10 16:03:00,33.0,-99.9,30.39,SE,140,7.0,9.0,-999,-99.99,,,-99.99,,2013-02-10 21:03:00,
2013-02-10 16:12:00,33.0,-99.9,30.39,SE,127,8.0,11.0,-999,-99.99,,,-99.99,,2013-02-10 21:12:00,
2013-02-10 16:22:00,33.0,-99.9,30.39,SE,126,8.0,10.0,-999,-99.99,,,-99.99,,2013-02-10 21:22:00,
2013-02-10 16:32:00,33.0,-99.9,30.39,SE,135,8.0,10.0,-999,-99.99,,,-99.99,,2013-02-10 21:32:00,
2013-02-10 16:42:00,33.0,-99.9,30.40,SSE,149,8.0,10.0,-999,-99.99,,,-99.99,,2013-02-10 21:42:00,
2013-02-10 16:52:00,33.0,-99.9,30.39,SE,137,10.0,12.0,-999,-99.99,,,-99.99,,2013-02-10 21:52:00,
2013-02-10 17:02:00,33.0,-99.9,30.39,SE,146,9.0,11.0,-999,-99.99,,,-99.99,,2013-02-10 22:02:00,
2013-02-10 17:12:00,33.0,-99.9,30.38,SE,139,11.0,13.0,-999,-99.99,,,-99.99,,2013-02-10 22:12:00,
2013-02-10 17:22:00,33.0,-99.9,30.38,SE,131,8.0,10.0,-999,-99.99,,,-99.99,,2013-02-10 22:22:00,
2013-02-10 17:32:00,33.0,-99.9,30.38,SE,131,10.0,12.0,-999,-99.99,,,-99.99,,2013-02-10 22:32:00,
2013-02-10 17:42:00,33.0,-99.9,30.39,SE,145,8.0,10.0,-999,-99.99,,,-99.99,,2013-02-10 22:42:00,
2013-02-10 17:53:00,32.0,-99.9,30.40,SSE,147,6.0,8.0,-999,-99.99,,,-99.99,,2013-02-10 22:53:00,
2013-02-10 18:02:00,32.0,-99.9,30.40,SSE,162,5.0,6.0,-999,-99.99,,,-99.99,,2013-02-10 23:02:00,
2013-02-10 18:12:00,33.0,-99.9,30.41,SSE,167,6.0,8.0,-999,-99.99,,,-99.99,,2013-02-10 23:12:00,
2013-02-10 18:22:00,33.0,-99.9,30.41,SSE,160,6.0,10.0,-999,-99.99,,,-99.99,,2013-02-10 23:22:00,
2013-02-10 18:32:00,33.0,-99.9,30.40,SSE,157,7.0,9.0,-999,-99.99,,,-99.99,,2013-02-10 23:32:00,
2013-02-10 18:42:00,33.0,-99.9,30.39,SE,140,8.0,10.0,-999,-99.99,,,-99.99,,2013-02-10 23:42:00,
2013-02-10 18:52:00,33.0,-99.9,30.39,SE,136,8.0,10.0,-999,-99.99,,,-99.99,,2013-02-10 23:52:00,
2013-02-10 19:02:00,33.0,-99.9,30.39,SSE,150,9.0,11.0,-999,-99.99,,,-99.99,,2013-02-11 00:02:00,
2013-02-10 19:11:00,34.0,-99.9,30.38,SE,144,10.0,13.0,-999,-99.99,,,-99.99,,2013-02-11 00:11:00,
2013-02-10 19:22:00,34.0,-99.9,30.37,SE,137,9.0,10.0,-999,-99.99,,,-99.99,,2013-02-11 00:22:00,
2013-02-10 19:32:00,34.0,-99.9,30.37,SE,139,9.0,12.0,-999,-99.99,,,-99.99,,2013-02-11 00:32:00,
2013-02-10 19:42:00,35.0,-99.9,30.36,SSE,147,10.0,13.0,-999,-99.99,,,-99.99,,2013-02-11 00:42:00,
2013-02-10 19:52:00,35.0,-99.9,30.37,SSE,157,11.0,17.0,-999,-99.99,,,-99.99,,2013-02-11 00:52:00,
2013-02-10 20:02:00,35.0,-99.9,30.37,South,172,8.0,10.0,-999,-99.99,,,-99.99,,2013-02-11 01:02:00,
2013-02-10 20:11:00,35.0,-99.9,30.38,South,170,7.0,11.0,-999,-99.99,,,-99.99,,2013-02-11 01:11:00,
2013-02-10 20:22:00,36.0,-99.9,30.38,South,171,10.0,11.0,-999,-99.99,,,-99.99,,2013-02-11 01:22:00,
2013-02-10 20:32:00,36.0,-99.9,30.38,South,174,10.0,16.0,-999,-99.99,,,-99.99,,2013-02-11 01:32:00,
2013-02-10 20:42:00,36.0,-99.9,30.37,South,175,8.0,11.0,-999,-99.99,,,-99.99,,2013-02-11 01:42:00,
2013-02-10 20:52:00,36.0,-99.9,30.37,South,172,8.0,11.0,-999,-99.99,,,-99.99,,2013-02-11 01:52:00,
2013-02-10 21:01:00,36.0,-99.9,30.37,South,170,9.0,13.0,-999,-99.99,,,-99.99,,2013-02-11 02:01:00,
2013-02-10 21:11:00,37.0,-99.9,30.37,South,172,9.0,12.0,-999,-99.99,,,-99.99,,2013-02-11 02:11:00,
2013-02-10 21:21:00,37.0,-99.9,30.37,South,172,8.0,10.0,-999,-99.99,,,-99.99,,2013-02-11 02:21:00,
2013-02-10 21:32:00,37.0,-99.9,30.37,South,173,8.0,10.0,-999,-99.99,,,-99.99,,2013-02-11 02:32:00,
2013-02-10 21:42:00,37.0,-99.9,30.37,SSE,165,8.0,10.0,-999,-99.99,,,-99.99,,2013-02-11 02:42:00,
2013-02-10 21:52:00,37.0,-99.9,30.37,South,171,8.0,11.0,-999,-99.99,,,-99.99,,2013-02-11 02:52:00,
2013-02-10 22:02:00,37.0,-99.9,30.36,South,173,8.0,11.0,-999,-99.99,,,-99.99,,2013-02-11 03:02:00,
2013-02-10 22:11:00,37.0,-99.9,30.35,South,172,7.0,11.0,-999,-99.99,,,-99.99,,2013-02-11 03:11:00,
2013-02-10 22:22:00,37.0,-99.9,30.35,South,173,7.0,9.0,-999,-99.99,,,-99.99,,2013-02-11 03:22:00,
2013-02-10 22:32:00,37.0,-99.9,30.35,South,173,7.0,10.0,-999,-99.99,,,-99.99,,2013-02-11 03:32:00,
2013-02-10 22:42:00,37.0,-99.9,30.34,SSE,160,7.0,10.0,-999,-99.99,,,-99.99,,2013-02-11 03:42:00,
2013-02-10 22:52:00,37.0,-99.9,30.32,SE,145,8.0,11.0,-999,-99.99,,,-99.99,,2013-02-11 03:52:00,
2013-02-10 23:02:00,37.0,-99.9,30.32,SSE,168,6.0,9.0,-999,-99.99,,,-99.99,,2013-02-11 04:02:00,
2013-02-10 23:11:00,38.0,-99.9,30.32,SSE,167,8.0,10.0,-999,-99.99,,,-99.99,,2013-02-11 04:11:00,
2013-02-10 23:22:00,38.0,-99.9,30.32,SSE,161,7.0,10.0,-999,-99.99,,,-99.99,,2013-02-11 04:22:00,
2013-02-10 23:32:00,38.0,-99.9,30.32,SSE,163,7.0,9.0,-999,-99.99,,,-99.99,,2013-02-11 04:32:00,
2013-02-10 23:42:00,38.0,-99.9,30.32,SSE,162,7.0,10.0,-999,-99.99,,,-99.99,,2013-02-11 04:42:00,
2013-02-10 23:52:00,38.0,-99.9,30.32,SSE,161,6.0,8.0,-999,-99.99,,,-99.99,,2013-02-11 04:52:00,